This demonstration page uses our WeatherBlox Daily Observations layout. Learn more.

Left ArrowRight Arrow

34.74481, -87.66753

Hourly Observations for May 5, 2019

Temp ( °F °C ) Dew Point ( °F °C ) Humidity (%) Winds ( mph kmh ) Pressure ( in mb ) Visibility ( mi km ) Precip ( " mm )
12:53 am 00:53 Mostly Clear with Light Rain 64 17.8 62 16.7 93 93 NNE 5 7 29.76 1008 10 16 0.01 0.25
1:53 am 01:53 undefined 64 17.8 61 16.1 90 90 NW 6 9 29.78 1008 10 16 0.00 0.03
2:53 am 02:53 undefined 64 17.8 62 16.7 93 93 NNW 3 6 29.78 1008 10 16 0.01 0.25
3:53 am 03:53 undefined 64 17.8 61 16.1 90 90 NW 5 7 29.79 1009 10 16 0.00 0.00
4:53 am 04:53 undefined 63 17.2 60 15.6 90 90 NW 6 9 29.80 1009 10 16 0.00 0.00
5:53 am 05:53 undefined 63 17.2 60 15.6 90 90 NW 9 15 29.82 1010 10 16 0.00 0.00
6:53 am 06:53 undefined 62 16.7 59 15 90 90 NW 8 13 29.84 1011 10 16 0.00 0.00
7:53 am 07:53 undefined 63 17.2 60 15.6 90 90 NW 9 15 29.86 1011 10 16 0.00 0.00
8:53 am 08:53 undefined 64 17.8 59 15 84 84 VRB 6 9 29.87 1012 10 16 0.00 0.00
9:53 am 09:53 undefined 64 17.8 58 14.4 81 81 NW 8 13 29.88 1012 10 16 0.00 0.00
10:35 am 10:35 Cloudy 67 19.4 59 15 76 76 NNW 9 15 29.89 1012 10 16 0.00 0.00
10:53 am 10:53 Cloudy 67 19.4 59 15 76 76 NW 8 13 29.89 1012 10 16 0.00 0.00
11:53 am 11:53 Cloudy 69 20.6 59 15 70 70 NW 8 13 29.89 1012 10 16 0.00 0.00
12:19 pm 12:19 Cloudy 69 20.6 59 15 70 70 NW 5 7 29.90 1012 10 16 0.00 0.00
12:37 pm 12:37 Cloudy 68 20 59 15 73 73 WNW 7 11 29.91 1013 10 16 0.00 0.00
12:53 pm 12:53 Cloudy 69 20.6 58 14.4 68 68 NNW 6 9 29.90 1013 10 16 0.00 0.00
1:06 pm 13:06 Cloudy 70 21.1 58 14.4 66 66 NW 6 9 29.90 1012 10 16 0.00 0.00
1:53 pm 13:53 Cloudy 71 21.7 58 14.4 63 63 Calm 29.89 1012 10 16 0.00 0.00
2:53 pm 14:53 Cloudy 71 21.7 58 14.4 63 63 NNW 7 11 29.89 1012 10 16 0.00 0.00
3:53 pm 15:53 Partly Cloudy 74 23.3 56 13.3 54 54 NNW 7 11 29.88 1012 10 16 0.00 0.00
4:53 pm 16:53 Mostly Cloudy 74 23.3 56 13.3 54 54 N 3 6 29.88 1012 10 16 0.00 0.00
5:53 pm 17:53 Partly Cloudy 71 21.7 56 13.3 59 59 NNW 8 13 29.88 1012 10 16 0.00 0.00
6:53 pm 18:53 Sunny 71 21.7 54 12.2 55 55 N 6 9 29.89 1012 10 16 0.00 0.00
7:53 pm 19:53 Clear 65 18.3 54 12.2 68 68 NNW 5 7 29.91 1013 10 16 0.00 0.00
8:53 pm 20:53 Clear 65 18.3 55 12.8 70 70 N 3 6 29.92 1013 10 16 0.00 0.00
9:53 pm 21:53 Clear 63 17.2 56 13.3 78 78 Calm 29.93 1014 10 16 0.00 0.00
10:53 pm 22:53 Clear 59 15 56 13.3 90 90 Calm 29.93 1014 10 16 0.00 0.00
11:53 pm 23:53 Clear 57 13.9 54 12.2 90 90 Calm 29.95 1014 10 16 0.00 0.00

Powered by AerisWeather